• In Netherlands
  • List of Countries
  • For 7 days
  • Water Temperature
  • Satellite Maps
  • Weather Map
  • Weather Widgets
  • user-avatar
    Login

    Hourly Weather Escaldes-Engordany

    Today, 28 February, Tuesday

    Time Temperature Precipitation Wind Pressure Humidity
    00:00 -1°C° 0 mm 1 mps 631 mmHg 89%
    01:00 -1°C° 0 mm 1 mps 631 mmHg 90%
    02:00 -1°C° 0 mm 1 mps 630 mmHg 91%
    03:00 -1°C° 0 mm 1 mps 630 mmHg 92%
    04:00 -1°C° 0 mm 1 mps 630 mmHg 92%
    05:00 -1°C° 0 mm 1 mps 630 mmHg 93%
    06:00 -1°C° 0 mm 1 mps 629 mmHg 93%
    07:00 0°C° 0 mm 1 mps 630 mmHg 87%
    08:00 +2°C° 0 mm 1 mps 631 mmHg 81%
    09:00 +3°C° 0 mm 2 mps 631 mmHg 74%
    10:00 +4°C° 0 mm 2 mps 632 mmHg 71%
    11:00 +5°C° 0 mm 3 mps 632 mmHg 67%
    12:00 +6°C° 0 mm 4 mps 632 mmHg 64%
    13:00 +5°C° 0.5 mm 4 mps 632 mmHg 69%
    14:00 +4°C° 0.5 mm 4 mps 632 mmHg 74%
    15:00 +3°C° 0.5 mm 4 mps 632 mmHg 79%
    16:00 +1°C° 0.4 mm 4 mps 632 mmHg 80%
    17:00 0°C° 0.4 mm 4 mps 632 mmHg 82%
    18:00 0°C° 0.4 mm 3 mps 633 mmHg 83%
    19:00 -1°C° 0 mm 3 mps 633 mmHg 84%
    20:00 -2°C° 0 mm 3 mps 633 mmHg 84%
    21:00 -4°C° 0 mm 3 mps 633 mmHg 84%
    22:00 -5°C° 0 mm 3 mps 634 mmHg 84%
    23:00 -5°C° 0 mm 3 mps 634 mmHg 83%

    Tomorrow, 1 March, Wednesday

    Time Temperature Precipitation Wind Pressure Humidity
    00:00 -6°C° 0 mm 3 mps 634 mmHg 82%
    01:00 -5°C° 0 mm 2 mps 634 mmHg 81%
    02:00 -5°C° 0 mm 2 mps 634 mmHg 80%
    03:00 -5°C° 0 mm 2 mps 634 mmHg 78%
    04:00 -5°C° 0 mm 2 mps 634 mmHg 77%
    05:00 -4°C° 0 mm 2 mps 635 mmHg 76%
    06:00 -2°C° 0 mm 1 mps 635 mmHg 75%
    07:00 0°C° 0 mm 1 mps 636 mmHg 73%
    08:00 +2°C° 0 mm 1 mps 637 mmHg 70%
    09:00 +4°C° 0 mm 1 mps 638 mmHg 67%
    10:00 +6°C° 0 mm 1 mps 639 mmHg 66%
    11:00 +7°C° 0 mm 1 mps 639 mmHg 65%
    12:00 +8°C° 0 mm 1 mps 639 mmHg 65%
    13:00 +7°C° 0 mm 2 mps 639 mmHg 66%
    14:00 +7°C° 0 mm 2 mps 639 mmHg 67%
    15:00 +8°C° 0 mm 2 mps 639 mmHg 68%
    16:00 +6°C° 0 mm 2 mps 638 mmHg 75%
    17:00 +3°C° 0 mm 2 mps 637 mmHg 82%
    18:00 +2°C° 0 mm 1 mps 637 mmHg 90%
    19:00 +2°C° 0 mm 1 mps 637 mmHg 91%
    20:00 +2°C° 0 mm 1 mps 637 mmHg 91%
    21:00 +1°C° 0 mm 1 mps 637 mmHg 92%
    22:00 +1°C° 0 mm 1 mps 637 mmHg 91%
    23:00 +1°C° 0 mm 1 mps 637 mmHg 91%

    Day after tomorrow, 2 March, Thursday

    Time Temperature Precipitation Wind Pressure Humidity
    00:00 +1°C° 0 mm 1 mps 637 mmHg 90%
    01:00 +1°C° 0 mm 1 mps 637 mmHg 89%
    02:00 +1°C° 0 mm 1 mps 636 mmHg 89%
    03:00 +1°C° 0 mm 1 mps 636 mmHg 88%
    04:00 0°C° 0 mm 1 mps 636 mmHg 88%
    05:00 0°C° 0 mm 1 mps 636 mmHg 88%
    06:00 -1°C° 0 mm 0 mps 636 mmHg 88%
    07:00 +2°C° 0 mm 1 mps 637 mmHg 82%
    08:00 +5°C° 0 mm 1 mps 638 mmHg 76%
    09:00 +7°C° 0 mm 1 mps 639 mmHg 70%
    10:00 +8°C° 0 mm 1 mps 639 mmHg 68%
    11:00 +8°C° 0 mm 2 mps 640 mmHg 65%
    12:00 +9°C° 0 mm 2 mps 640 mmHg 62%
    13:00 +9°C° 0 mm 2 mps 639 mmHg 63%
    14:00 +9°C° 0 mm 2 mps 639 mmHg 63%
    15:00 +9°C° 0 mm 2 mps 638 mmHg 64%
    16:00 +7°C° 0 mm 2 mps 638 mmHg 73%
    17:00 +5°C° 0 mm 2 mps 637 mmHg 81%
    18:00 +4°C° 0 mm 1 mps 636 mmHg 90%
    19:00 +3°C° 0 mm 1 mps 636 mmHg 90%
    20:00 +3°C° 0 mm 1 mps 635 mmHg 90%
    21:00 +2°C° 0 mm 1 mps 635 mmHg 90%
    22:00 +2°C° 0 mm 1 mps 635 mmHg 90%
    23:00 +1°C° 0 mm 2 mps 635 mmHg 89%

    3 March, Friday

    Time Temperature Precipitation Wind Pressure Humidity
    00:00 +1°C° 0 mm 2 mps 634 mmHg 89%
    01:00 +1°C° 0 mm 2 mps 634 mmHg 88%
    02:00 +1°C° 0 mm 2 mps 633 mmHg 87%
    03:00 +1°C° 0 mm 2 mps 632 mmHg 87%
    04:00 +1°C° 0 mm 2 mps 632 mmHg 86%
    05:00 +1°C° 0 mm 2 mps 631 mmHg 85%
    06:00 0°C° 0 mm 3 mps 631 mmHg 84%
    07:00 +2°C° 0 mm 3 mps 631 mmHg 80%
    08:00 +3°C° 0 mm 3 mps 632 mmHg 76%
    09:00 +5°C° 0 mm 3 mps 632 mmHg 73%
    10:00 +6°C° 0.1 mm 4 mps 631 mmHg 71%
    11:00 +6°C° 0.1 mm 4 mps 631 mmHg 70%
    12:00 +7°C° 0.1 mm 5 mps 631 mmHg 68%
    13:00 +7°C° 0.4 mm 5 mps 630 mmHg 69%
    14:00 +7°C° 0.4 mm 5 mps 629 mmHg 71%
    15:00 +6°C° 0.4 mm 5 mps 628 mmHg 72%
    16:00 +5°C° 0.4 mm 4 mps 628 mmHg 77%
    17:00 +3°C° 0.4 mm 4 mps 628 mmHg 83%
    18:00 +2°C° 0.4 mm 3 mps 628 mmHg 88%
    19:00 +1°C° 0 mm 3 mps 628 mmHg 89%
    20:00 -1°C° 0 mm 3 mps 628 mmHg 90%
    21:00 -2°C° 0 mm 2 mps 628 mmHg 90%
    22:00 -3°C° 0 mm 2 mps 628 mmHg 87%
    23:00 -3°C° 0 mm 2 mps 628 mmHg 84%

    4 March, Saturday

    Time Temperature Precipitation Wind Pressure Humidity
    00:00 -4°C° 0 mm 2 mps 627 mmHg 81%
    01:00 -5°C° 0 mm 2 mps 627 mmHg 79%
    02:00 -3°C° 0 mm 1 mps 627 mmHg 77%
    03:00 -3°C° 0 mm 1 mps 626 mmHg 75%
    04:00 -5°C° 0 mm 2 mps 627 mmHg 74%
    05:00 -5°C° 0 mm 2 mps 627 mmHg 74%
    06:00 -5°C° 0 mm 2 mps 627 mmHg 73%
    07:00 -4°C° 0 mm 2 mps 627 mmHg 71%
    08:00 -2°C° 0 mm 2 mps 628 mmHg 68%
    09:00 -1°C° 0 mm 2 mps 629 mmHg 65%
    10:00 +1°C° 0 mm 3 mps 629 mmHg 59%
    11:00 +2°C° 0 mm 3 mps 630 mmHg 54%
    12:00 +3°C° 0 mm 3 mps 630 mmHg 48%
    13:00 +3°C° 0 mm 3 mps 630 mmHg 47%
    14:00 +4°C° 0 mm 2 mps 630 mmHg 47%
    15:00 +4°C° 0 mm 2 mps 630 mmHg 46%
    16:00 +2°C° 0 mm 2 mps 630 mmHg 54%
    17:00 +1°C° 0 mm 2 mps 630 mmHg 62%
    18:00 0°C° 0 mm 1 mps 630 mmHg 71%
    19:00 0°C° 0 mm 1 mps 630 mmHg 74%
    20:00 -1°C° 0 mm 1 mps 631 mmHg 76%
    21:00 -1°C° 0 mm 1 mps 631 mmHg 79%
    22:00 -2°C° 0 mm 1 mps 631 mmHg 79%
    23:00 -2°C° 0 mm 1 mps 631 mmHg 79%

    5 March, Sunday

    Time Temperature Precipitation Wind Pressure Humidity
    00:00 -2°C° 0 mm 1 mps 631 mmHg 79%
    01:00 -2°C° 0 mm 1 mps 632 mmHg 79%
    02:00 -2°C° 0 mm 1 mps 632 mmHg 79%
    03:00 -2°C° 0 mm 1 mps 632 mmHg 78%
    04:00 -2°C° 0 mm 1 mps 633 mmHg 78%
    05:00 -3°C° 0 mm 1 mps 633 mmHg 79%
    06:00 -3°C° 0 mm 1 mps 633 mmHg 79%
    07:00 -1°C° 0 mm 1 mps 634 mmHg 71%
    08:00 +1°C° 0 mm 1 mps 635 mmHg 64%
    09:00 +2°C° 0 mm 2 mps 636 mmHg 56%
    10:00 +3°C° 0 mm 2 mps 636 mmHg 54%
    11:00 +4°C° 0 mm 2 mps 636 mmHg 53%
    12:00 +4°C° 0 mm 3 mps 636 mmHg 51%
    13:00 +4°C° 0 mm 3 mps 636 mmHg 53%
    14:00 +4°C° 0 mm 3 mps 636 mmHg 54%
    15:00 +5°C° 0 mm 2 mps 636 mmHg 55%
    16:00 +3°C° 0 mm 2 mps 635 mmHg 65%
    17:00 +1°C° 0 mm 2 mps 634 mmHg 75%
    18:00 -2°C° 0 mm 2 mps 633 mmHg 85%
    19:00 -2°C° 0.2 mm 2 mps 633 mmHg 85%
    20:00 -2°C° 0.2 mm 2 mps 634 mmHg 85%
    21:00 -2°C° 0.2 mm 2 mps 634 mmHg 86%
    22:00 -2°C° 0.5 mm 2 mps 634 mmHg 87%
    23:00 -1°C° 0.5 mm 2 mps 634 mmHg 88%
    Show more